This demonstration page uses our WeatherBlox Daily Observations layout. Learn more.

Left ArrowRight Arrow

39.51506, -84.39828

Hourly Observations for March 22, 2017

Temp ( °F °C ) Dew Point ( °F °C ) Humidity (%) Winds ( mph kmh ) Pressure ( in mb ) Visibility ( mi km ) Precip ( " mm )
12:15 am 00:15 Clear 40 4.7 19 -7.1 42 42 NNW 10 17 30.27 1025 10 16 0.00 0.00
12:35 am 00:35 Clear 40 4.3 20 -6.7 45 45 N 10 17 30.27 1025 10 16 0.00 0.00
12:55 am 00:55 Clear 39 4 21 -6.3 47 47 N 12 19 30.27 1025 10 16 0.00 0.00
1:15 am 01:15 Clear 39 4 22 -5.7 50 50 N 13 20 30.30 1026 10 16 0.00 0.00
1:35 am 01:35 Clear 39 4 23 -5.2 52 52 N 13 20 30.30 1026 10 16 0.00 0.00
1:55 am 01:55 Clear 39 3.9 24 -4.6 54 54 N 12 19 30.33 1027 10 16 0.00 0.00
2:15 am 02:15 Clear 37 2.6 23 -5 58 58 N 12 19 30.33 1027 10 16 0.00 0.00
2:35 am 02:35 Clear 37 2.6 21 -6 53 53 N 13 20 30.36 1028 10 16 0.00 0.00
2:55 am 02:55 Clear 36 2.3 20 -6.6 52 52 N 12 19 30.36 1028 10 16 0.00 0.00
3:15 am 03:15 Clear 34 1.3 19 -7.3 53 53 N 8 13 30.36 1028 10 16 0.00 0.00
3:35 am 03:35 Clear 34 1.2 19 -7.5 53 53 N 9 15 30.39 1029 10 16 0.00 0.00
3:55 am 03:55 Clear 34 1.2 17 -8.3 50 50 N 14 22 30.39 1029 10 16 0.00 0.00
4:15 am 04:15 Clear 34 1.2 16 -8.7 48 48 N 16 26 30.39 1029 10 16 0.00 0.00
4:35 am 04:35 Clear 34 1.2 17 -8.3 50 50 N 13 20 30.39 1029 10 16 0.00 0.00
4:55 am 04:55 Clear 34 1.2 17 -8.4 49 49 N 12 19 30.39 1029 10 16 0.00 0.00
5:15 am 05:15 Clear 34 1.2 17 -8.3 50 50 N 8 13 30.39 1029 10 16 0.00 0.00
5:35 am 05:35 Clear 34 1.2 15 -9.6 45 45 N 14 22 30.39 1029 10 16 0.00 0.00
5:55 am 05:55 Clear 32 0 13 -10.8 44 44 N 10 17 30.42 1030 10 16 0.00 0.00
6:15 am 06:15 Clear 32 0 13 -10.7 45 45 N 14 22 30.42 1030 10 16 0.00 0.00
6:35 am 06:35 Clear 31 -0.7 12 -11 46 46 N 13 20 30.42 1030 10 16 0.00 0.00
6:55 am 06:55 Clear 30 -1.2 14 -10.1 51 51 NNE 18 30 30.45 1031 10 16 0.00 0.00
7:15 am 07:15 Clear 29 -1.5 14 -9.9 53 53 NNE 13 20 30.45 1031 10 16 0.00 0.00
7:35 am 07:35 Clear 29 -1.5 14 -10 53 53 N 12 19 30.45 1031 10 16 0.00 0.00
7:55 am 07:55 Sunny 29 -1.5 14 -9.8 54 54 N 12 19 30.48 1032 10 16 0.00 0.00
8:15 am 08:15 Sunny 29 -1.5 14 -10 53 53 N 13 20 30.48 1032 10 16 0.00 0.00
8:35 am 08:35 Sunny 29 -1.5 14 -10.1 52 52 N 12 19 30.50 1033 10 16 0.00 0.00
8:55 am 08:55 Partly Cloudy 29 -1.5 13 -10.6 50 50 NNE 13 20 30.50 1033 10 16 0.00 0.00
9:15 am 09:15 Sunny 29 -1.5 12 -10.9 49 49 NNE 12 19 30.53 1034 10 16 0.00 0.00
9:35 am 09:35 Sunny 30 -1.2 12 -10.9 48 48 NE 15 24 30.53 1034 10 16 0.00 0.00
9:55 am 09:55 Sunny 31 -0.8 12 -10.9 47 47 NE 12 19 30.53 1034 10 16 0.00 0.00
10:15 am 10:15 Sunny 32 0 13 -10.5 45 45 NNE 12 19 30.53 1034 10 16 0.00 0.00
10:35 am 10:35 Sunny 34 1.2 14 -10.1 43 43 NNE 12 19 30.56 1035 10 16 0.00 0.00
10:55 am 10:55 Sunny 34 1.1 13 -10.5 42 42 NNE 8 13 30.56 1035 10 16 0.00 0.00
11:15 am 11:15 Sunny 34 1.2 12 -11.1 40 40 NE 8 13 30.56 1035 10 16 0.00 0.00
11:35 am 11:35 Sunny 34 1.2 12 -11.1 40 40 ENE 7 11 30.56 1035 10 16 0.00 0.00
11:55 am 11:55 Sunny 34 1.2 12 -11.2 39 39 NNE 10 17 30.56 1035 10 16 0.00 0.00
12:15 pm 12:15 Sunny 37 2.5 12 -11.3 36 36 N 10 17 30.56 1035 10 16 0.00 0.00
12:35 pm 12:35 Sunny 37 2.6 11 -11.8 34 34 NE 12 19 30.59 1036 10 16 0.00 0.00
12:55 pm 12:55 Sunny 37 2.6 11 -11.7 34 34 NE 7 11 30.56 1035 10 16 0.00 0.00
1:15 pm 13:15 Sunny 38 3.1 11 -11.5 34 34 NE 8 13 30.56 1035 10 16 0.00 0.00
1:35 pm 13:35 Sunny 37 3 12 -11.2 35 35 NNE 10 17 30.56 1035 10 16 0.00 0.00
1:55 pm 13:55 Sunny 39 4 12 -11.2 32 32 NNE 13 20 30.56 1035 10 16 0.00 0.00
2:10 pm 14:10 Sunny 39 4 12 -11.1 33 33 NNE 12 19 30.56 1035 10 16 0.00 0.00
2:35 pm 14:35 Sunny 39 4 13 -10.7 34 34 N 12 19 30.56 1035 10 16 0.00 0.00
2:55 pm 14:55 Sunny 40 4.4 13 -10.8 32 32 NNE 12 19 30.56 1035 10 16 0.00 0.00
3:15 pm 15:15 Sunny 40 4.5 13 -10.8 32 32 N 13 20 30.53 1034 10 16 0.00 0.00
3:35 pm 15:35 Sunny 39 4 10 -12.2 30 30 NE 14 22 30.53 1034 10 16 0.00 0.00
3:55 pm 15:55 Sunny 40 4.7 11 -11.7 30 30 NNE 12 19 30.53 1034 10 16 0.00 0.00
4:15 pm 16:15 Sunny 40 4.7 10 -12.1 29 29 NE 12 19 30.50 1033 10 16 0.00 0.00
4:35 pm 16:35 Sunny 41 4.9 10 -12.1 28 28 NNE 13 20 30.50 1033 10 16 0.00 0.00
4:55 pm 16:55 Sunny 42 5.3 11 -11.9 28 28 N 9 15 30.50 1033 10 16 0.00 0.00
5:15 pm 17:15 Sunny 42 5.5 11 -11.7 28 28 N 10 17 30.50 1033 10 16 0.00 0.00
5:30 pm 17:30 Sunny 41 5.2 11 -11.8 28 28 NNE 8 13 30.50 1033 10 16 0.00 0.00
5:55 pm 17:55 Sunny 42 5.5 11 -11.5 28 28 NNE 13 20 30.50 1033 10 16 0.00 0.00
6:15 pm 18:15 Sunny 42 5.5 11 -11.8 28 28 NE 12 19 30.50 1033 10 16 0.00 0.00
6:35 pm 18:35 Sunny 42 5.5 11 -11.5 28 28 NE 12 19 30.50 1033 10 16 0.00 0.00
6:55 pm 18:55 Sunny 40 4.7 10 -12 29 29 ENE 8 13 30.50 1033 10 16 0.00 0.00
7:15 pm 19:15 Sunny 40 4.5 10 -12.5 28 28 ENE 10 17 30.53 1034 10 16 0.00 0.00
7:35 pm 19:35 Sunny 39 4 10 -12.2 30 30 NE 10 17 30.53 1034 10 16 0.00 0.00
7:55 pm 19:55 Clear 37 3 12 -10.9 36 36 ENE 8 13 30.53 1034 10 16 0.00 0.00
8:15 pm 20:15 Clear 37 2.6 14 -10.1 39 39 NE 7 11 30.53 1034 10 16 0.00 0.00
8:35 pm 20:35 Clear 37 2.6 15 -9.3 42 42 NE 7 11 30.53 1034 10 16 0.00 0.00
8:55 pm 20:55 Clear 37 2.6 16 -9.1 42 42 NE 8 13 30.53 1034 10 16 0.00 0.00
9:15 pm 21:15 Clear 35 1.5 15 -9.2 45 45 NE 9 15 30.53 1034 10 16 0.00 0.00
9:35 pm 21:35 Clear 35 1.9 16 -9 45 45 NE 7 11 30.53 1034 10 16 0.00 0.00
9:55 pm 21:55 Clear 34 1.2 17 -8.5 49 49 NE 7 11 30.53 1034 10 16 0.00 0.00
10:15 pm 22:15 Clear 34 1.2 15 -9.5 45 45 NE 9 15 30.53 1034 10 16 0.00 0.00
10:35 pm 22:35 Clear 34 1.2 16 -9 47 47 NE 9 15 30.53 1034 10 16 0.00 0.00
10:55 pm 22:55 Clear 34 1.2 18 -7.9 51 51 NE 6 9 30.53 1034 10 16 0.00 0.00
11:15 pm 23:15 Clear 34 1.2 18 -7.6 52 52 NE 9 15 30.53 1034 10 16 0.00 0.00
11:35 pm 23:35 Clear 34 1.2 19 -7.3 54 54 NE 8 13 30.53 1034 10 16 0.00 0.00
11:55 pm 23:55 Clear 34 1.2 18 -7.7 52 52 NNE 8 13 30.56 1035 10 16 0.00 0.00

Powered by AerisWeather